星链-1137 (STARLINK-1137 )

导读 | 豆包AI

STARLINK-1137是美国SpaceX公司星链星座的一员,于2020年1月29日发射入轨。星链项目旨在构建全球低轨卫星互联网星座,为全球偏远、网络欠覆盖区域提供高速宽带服务。作为星链早期部署的卫星之一,它承担着完善星座组网、验证低轨卫星通信技术的任务,推动了全球卫星互联网基础设施的建设进程。

Basic Information
目录编号:
45092
目录名称:
STARLINK-1137
国际标识:
2020-006BA
轨道中心:
EARTH
卫星名称:
星链-1137
卫星全名:
星链-1137 (STARLINK-1137 )
卫星状态:
已陨落 最后检测时间 2025-04-17
发射日期:
2020-01-29 UTC
国别 :
美国 (US)
星等 :
--
Orbit Information
数据来源 国际轨道数据
星历时间: 2025-04-17T05:06:10+0800
轨道信息已过期331天
半长轴: 6598.028km
偏心率: 0.0011182
轨道倾角: 53.040°
近地点辐角 326.607°
升交点赤经 239.495°
平近点角 178.718°
近地点: 212.515km
远地点: 227.271km
周期: 88.896分钟
每日圈数: 16.198753
Detailed Information
固有亮度:
5
最大亮度:
2.5
卫星平台:
Starlink V1.0
覆盖范围:
全球
运营商:
太空探索技术公司
运营商所在国:
美国
制造商(研发单位):
太空探索技术公司
制造商所在国:
美国
使用方式:
暂无
Satellite Introduction
星链(Starlink)计划是由太空探索技术公司(SpaceX)提出的一个巨型低轨卫星互联网星座项目,计划在2019年至2024年间在太空搭建由约1.2万颗卫星组成的“星链”网络,其中1584颗将部署在地球上空550千米处的近地轨道,并从2020年开始工作。该卫星仍在工作。